Add date Part number Description Manufacture PDF
07-05-2017 LF60C LFXX Very low drop voltage regulat STMicroelectronics LF60C datasheet
07-05-2017 LF60AB LFXX Very low drop voltage regulat STMicroelectronics LF60AB datasheet
07-05-2017 LF50C LFXX Very low drop voltage regulat STMicroelectronics LF50C datasheet
07-05-2017 LF50AC LFXX Very low drop voltage regulat STMicroelectronics LF50AC datasheet
07-05-2017 LF50AB LFXX Very low drop voltage regulat STMicroelectronics LF50AB datasheet
07-05-2017 LF33C LFXX Very low drop voltage regulat STMicroelectronics LF33C datasheet
07-05-2017 LF33AB LFXX Very low drop voltage regulat STMicroelectronics LF33AB datasheet
07-05-2017 LF25C LFXX Very low drop voltage regulat STMicroelectronics LF25C datasheet
07-05-2017 LF25AB LFXX Very low drop voltage regulat STMicroelectronics LF25AB datasheet
07-05-2017 LF18C LFXX Very low drop voltage regulat STMicroelectronics LF18C datasheet
07-05-2017 LF18AB LFXX Very low drop voltage regulat STMicroelectronics LF18AB datasheet
07-05-2017 LF15AB LFXX Very low drop voltage regulat STMicroelectronics LF15AB datasheet
07-05-2017 MBRF2030CT LITE-ON SEMICONDUCTOR MBRF2030CT t LITE-ON MBRF2030CT datasheet
07-05-2017 MBRF2045CT Schottky Barrier Rectifier MBRF2045 Littelfuse MBRF2045CT datasheet
07-05-2017 MBRF2045CT MBRF2045CT Rev.E Mar.-2016 描述 / BLUE ROCKET ELECTRONICS MBRF2045CT datasheet
07-05-2017 MBRF1060CT MBRF1060CT Rev.F Mar.-2016 描述 / BLUE ROCKET ELECTRONICS MBRF1060CT datasheet
07-05-2017 MBRF1080CT MBRF1020CT THRU MBRF10100CT SCHOTTK KD MBRF1080CT datasheet
07-05-2017 MBRF10100CT MBRF1020CT THRU MBRF10100CT SCHOTTK KD MBRF10100CT datasheet
07-05-2017 MBRF1060CT MBRF1020CT THRU MBRF10100CT SCHOTTK KD MBRF1060CT datasheet
07-05-2017 MBRF1050CT MBRF1020CT THRU MBRF10100CT SCHOTTK KD MBRF1050CT datasheet
07-05-2017 MBRF1045CT MBRF1020CT THRU MBRF10100CT SCHOTTK KD MBRF1045CT datasheet
07-05-2017 MBRF1040CT MBRF1020CT THRU MBRF10100CT SCHOTTK KD MBRF1040CT datasheet
07-05-2017 MBRF1020CT MBRF1020CT THRU MBRF10100CT SCHOTTK KD MBRF1020CT datasheet
07-05-2017 MBRF1030CT MBRF1020CT THRU MBRF10100CT SCHOTTK KD MBRF1030CT datasheet
07-05-2017 MBRF10100CT MBRF1020CT THRU MBRF10100CT SCHOTT MDD MBRF10100CT datasheet
07-05-2017 MBRF1090CT MBRF1020CT THRU MBRF10100CT SCHOTT MDD MBRF1090CT datasheet
07-05-2017 MBRF1020CT MBRF1020CT THRU MBRF10100CT SCHOTT MDD MBRF1020CT datasheet
07-05-2017 MBRF1030CT MBRF1020CT THRU MBRF10100CT SCHOTT MDD MBRF1030CT datasheet
07-05-2017 MBRF1040CT MBRF1020CT THRU MBRF10100CT SCHOTT MDD MBRF1040CT datasheet
07-05-2017 MBRF1045CT MBRF1020CT THRU MBRF10100CT SCHOTT MDD MBRF1045CT datasheet
07-05-2017 MBRF1050CT MBRF1020CT THRU MBRF10100CT SCHOTT MDD MBRF1050CT datasheet
07-05-2017 MBRF1060CT MBRF1020CT THRU MBRF10100CT SCHOTT MDD MBRF1060CT datasheet
07-05-2017 MBRF1070CT MBRF1020CT THRU MBRF10100CT SCHOTT MDD MBRF1070CT datasheet
07-05-2017 MBRF1080CT MBRF1020CT THRU MBRF10100CT SCHOTT MDD MBRF1080CT datasheet
07-05-2017 MBRF1045CT MBR1045CT/MBRF1045CT Schottky Barri GOOD-ARK MBRF1045CT datasheet
07-05-2017 MBRF1045CT SEMICONDUCTOR TECHNICAL DATA MBRF1 KEC MBRF1045CT datasheet
07-05-2017 MBR1045CT MBR1045CT/MBRF1045CT Schottky Barri GOOD-ARK MBR1045CT datasheet
07-05-2017 MBRF1045CT LITE-ON SEMICONDUCTOR MBRF1030CT t LITE-ON MBRF1045CT datasheet
07-05-2017 MBRF1040CT LITE-ON SEMICONDUCTOR MBRF1030CT t LITE-ON MBRF1040CT datasheet
07-05-2017 MBRF1030CT LITE-ON SEMICONDUCTOR MBRF1030CT t LITE-ON MBRF1030CT datasheet
07-05-2017 MBRF1060CT   Green MBRF1030CT- MBRF1060CT 10 DIODES MBRF1060CT datasheet
07-05-2017 MBRF1050CT   Green MBRF1030CT- MBRF1060CT 10 DIODES MBRF1050CT datasheet
07-05-2017 MBRF1045CT   Green MBRF1030CT- MBRF1060CT 10 DIODES MBRF1045CT datasheet
07-05-2017 MBRF1030CT   Green MBRF1030CT- MBRF1060CT 10 DIODES MBRF1030CT datasheet
07-05-2017 MBRF1045CT MBRF1045CT Rev.F Mar.-2016 描述 / BLUE ROCKET ELECTRONICS MBRF1045CT datasheet
07-05-2017 MBRF1045CT MBRF1045CT Technical Data Data She Sangdest Microelectronics MBRF1045CT datasheet
07-05-2017 MBRF20H100CT MBRF20H100CT Rev.F Mar.-2016 描述 BLUE ROCKET ELECTRONICS MBRF20H100CT datasheet
07-05-2017 LV40150FCT LV40150FCT Rev.F Mar.-2016 描述 / BLUE ROCKET ELECTRONICS LV40150FCT datasheet
07-05-2017 LV40100FCT LV40100FCT Rev.E Mar.-2016 描述 / BLUE ROCKET ELECTRONICS LV40100FCT datasheet
07-05-2017 2N6165 Solid State 2N6165 datasheet
07-05-2017 LV30200FCT LV30200FCT Rev.F Mar.-2016 描述 / BLUE ROCKET ELECTRONICS LV30200FCT datasheet
07-05-2017 2N6164 Solid State 2N6164 datasheet
07-05-2017 2N6163 Solid State 2N6163 datasheet
07-05-2017 2N6161 Solid State 2N6161 datasheet
07-05-2017 2N6162 Solid State 2N6162 datasheet
07-05-2017 2N6160 Solid State 2N6160 datasheet
07-05-2017 2N6159 Solid State 2N6159 datasheet
07-05-2017 2N6157 Solid State 2N6157 datasheet
07-05-2017 2N6158 Solid State 2N6158 datasheet
07-05-2017 T6420 Solid State T6420 datasheet
07-05-2017 T6410 Solid State T6410 datasheet
07-05-2017 T6400 Solid State T6400 datasheet
07-05-2017 2N5445 Solid State 2N5445 datasheet
07-05-2017 2N5446 Solid State 2N5446 datasheet
07-05-2017 2N5444 Solid State 2N5444 datasheet
07-05-2017 2N5443 Solid State 2N5443 datasheet
07-05-2017 2N5442 Solid State 2N5442 datasheet
07-05-2017 2N5441 Solid State 2N5441 datasheet
07-05-2017 MAC224A10 DIGITRON SEMICONDUCTORS MAC224(A) Digitron Semiconductors MAC224A10 datasheet
07-05-2017 MAC224-10 DIGITRON SEMICONDUCTORS MAC224(A) Digitron Semiconductors MAC224-10 datasheet
07-05-2017 MAC224A9 DIGITRON SEMICONDUCTORS MAC224(A) Digitron Semiconductors MAC224A9 datasheet
07-05-2017 MAC224-9 DIGITRON SEMICONDUCTORS MAC224(A) Digitron Semiconductors MAC224-9 datasheet
07-05-2017 MAC224A8 DIGITRON SEMICONDUCTORS MAC224(A) Digitron Semiconductors MAC224A8 datasheet
07-05-2017 MAC224-8 DIGITRON SEMICONDUCTORS MAC224(A) Digitron Semiconductors MAC224-8 datasheet
07-05-2017 LTC4368 Features nn Wide Operating Voltage Linear Technology LTC4368 datasheet
07-05-2017 LT8645S LT8645S 65V, 8A Synchronous Step-D Linear Technology LT8645S datasheet
07-05-2017 LT8640S LT8640S 42V, 6A Synchronous Step-D Linear Technology LT8640S datasheet
07-05-2017 LT8640-1 LT8640/LT8640-1 42V, 5A Synchronou Linear Technology LT8640-1 datasheet
07-05-2017 LT8609B LT8609/LT8609A/LT8609B 42V, 2A/3A P Linear Technology LT8609B datasheet
07-05-2017 LT8609A LT8609/LT8609A/LT8609B 42V, 2A/3A P Linear Technology LT8609A datasheet
07-05-2017 LT8609S LT8609S 42V, 2A/3A Peak Synchronous Linear Technology LT8609S datasheet
07-05-2017 LT8315 LT8315 560VIN Micropower No-Opto I Linear LT8315 datasheet
07-05-2017 LTM8073 FEATURES n Complete Step-Down Swit Linear Technology LTM8073 datasheet
07-05-2017 LTM4650A-1 FEATURES LTM4650A-1 Dual 25A or Si Linear Technology LTM4650A-1 datasheet
07-05-2017 LTM4650A Features LTM4650A Dual 25A or Sing Linear Technology LTM4650A datasheet
07-05-2017 LT3045-1 LT3045-1 20V, 500mA, Ultralow Nois Linear LT3045-1 datasheet
07-05-2017 LTM2895 FEATURES nn Isolated Interface: 600 Linear Technology LTM2895 datasheet
07-05-2017 LTC7820 LTC7820 Features Fixed Ratio High Linear Technology LTC7820 datasheet
07-05-2017 LTC2063 Features nn Low Supply Current: 2μ Linear Technology LTC2063 datasheet
07-05-2017 LT1997-3 Features nn Pin Configurable as a D Linear Technology LT1997-3 datasheet
07-05-2017 LTC5553 Features nn Upconversion or Downcon Linear Technology LTC5553 datasheet
07-05-2017 LTC2500-32 LTC2500-32 32-Bit Over-Sampling ADC Linear Technology LTC2500-32 datasheet
07-05-2017 LTC2358-16 Features LTC2358-16 Buffered Octal Linear Technology LTC2358-16 datasheet
07-05-2017 LTC2358-18 LTC2358-18 Buffered Octal, 18-Bit, Linear Technology LTC2358-18 datasheet
07-05-2017 LTC2325-14 Features nn 5Msps/Ch Throughput Rat Linear Technology LTC2325-14 datasheet
07-05-2017 LTC2325-16 FEATURES nn 5Msps/Ch Throughput Rat Linear Technology LTC2325-16 datasheet
07-05-2017 LTC2325-12 Features nn 5Msps/Ch Throughput Rat Linear Technology LTC2325-12 datasheet
07-05-2017 LTC2320-16 FEATURES nn 1.5Msps/Ch Throughput R Linear Technology LTC2320-16 datasheet
07-05-2017 LTC2320-14 FEATURES nn 1.5Msps/Ch Throughput R Linear Technology LTC2320-14 datasheet
07-05-2017 LTC2320-12 Features nn 1.5Msps/Ch Throughput R Linear Technology LTC2320-12 datasheet
07-05-2017 SYTX2-6T-1 RF TransformerSurface Mount This m Mini-Circuits SYTX2-6T-1 datasheet
07-05-2017 LTC6432-15 FEATURES nn 100kHz to 1400MHz Bandw Linear LTC6432-15 datasheet
07-05-2017 LTC6419 FEATURES n 10GHz Gain-Bandwidth Pr Linear Technology LTC6419 datasheet
07-05-2017 LTC6260 FEATURES n Gain Bandwidth Product: Linear Technology LTC6260 datasheet
07-05-2017 LTC6259 FEATURES n Gain Bandwidth Product: Linear Technology LTC6259 datasheet
07-05-2017 LTC2333-18 LTC2333-18 FEATURES Buffered 8-Ch Linear LTC2333-18 datasheet
07-05-2017 LTC6258 FEATURES n Gain Bandwidth Product: Linear Technology LTC6258 datasheet
07-05-2017 LF120C LFXX Very low drop voltage regulat STMicroelectronics LF120C datasheet
07-05-2017 LF120AB LFXX Very low drop voltage regulat STMicroelectronics LF120AB datasheet
07-05-2017 LF90C LFXX Very low drop voltage regulat STMicroelectronics LF90C datasheet
07-05-2017 LF85C LFXX Very low drop voltage regulat STMicroelectronics LF85C datasheet
07-05-2017 LF85AB LFXX Very low drop voltage regulat STMicroelectronics LF85AB datasheet
07-05-2017 LF80C LFXX Very low drop voltage regulat STMicroelectronics LF80C datasheet
07-05-2017 LF80AB LFXX Very low drop voltage regulat STMicroelectronics LF80AB datasheet
07-05-2017 2N6069 DIGITRON SEMICONDUCTORS 2N6068, A, Digitron Semiconductors 2N6069 datasheet
07-05-2017 2N6070A DIGITRON SEMICONDUCTORS 2N6068, A, Digitron Semiconductors 2N6070A datasheet
07-05-2017 2N6069A DIGITRON SEMICONDUCTORS 2N6068, A, Digitron Semiconductors 2N6069A datasheet
07-05-2017 2N6068A DIGITRON SEMICONDUCTORS 2N6068, A, Digitron Semiconductors 2N6068A datasheet
07-05-2017 2N6075 DIGITRON SEMICONDUCTORS 2N6068, A, Digitron Semiconductors 2N6075 datasheet
07-05-2017 2N6074 DIGITRON SEMICONDUCTORS 2N6068, A, Digitron Semiconductors 2N6074 datasheet
07-05-2017 MAC224-4 DIGITRON SEMICONDUCTORS MAC224(A) Digitron Semiconductors MAC224-4 datasheet
07-05-2017 2N6165 2N6157-2N6165 High-reliability dis Digitron Semiconductors 2N6165 datasheet
07-05-2017 2N6163 2N6157-2N6165 High-reliability dis Digitron Semiconductors 2N6163 datasheet
07-05-2017 2N6158 2N6157-2N6165 High-reliability dis Digitron Semiconductors 2N6158 datasheet
07-05-2017 2N6161 2N6157-2N6165 High-reliability dis Digitron Semiconductors 2N6161 datasheet
07-05-2017 2N6164 2N6157-2N6165 High-reliability dis Digitron Semiconductors 2N6164 datasheet
07-05-2017 2N6159 2N6157-2N6165 High-reliability dis Digitron Semiconductors 2N6159 datasheet
07-05-2017 2N6162 2N6157-2N6165 High-reliability dis Digitron Semiconductors 2N6162 datasheet
07-05-2017 2N5445 DIGITRON SEMICONDUCTORS 2N5441-2N5 Digitron Semiconductors 2N5445 datasheet
07-05-2017 T6420D DIGITRON SEMICONDUCTORS 2N5441-2N5 Digitron Semiconductors T6420D datasheet
07-05-2017 2N5443 DIGITRON SEMICONDUCTORS 2N5441-2N5 Digitron Semiconductors 2N5443 datasheet
07-05-2017 2N5446 DIGITRON SEMICONDUCTORS 2N5441-2N5 Digitron Semiconductors 2N5446 datasheet
07-05-2017 T6420M DIGITRON SEMICONDUCTORS 2N5441-2N5 Digitron Semiconductors T6420M datasheet
07-05-2017 2N6157 2N6157-2N6165 High-reliability dis Digitron Semiconductors 2N6157 datasheet
07-05-2017 2N6160 2N6157-2N6165 High-reliability dis Digitron Semiconductors 2N6160 datasheet
07-05-2017 2N5442 DIGITRON SEMICONDUCTORS 2N5441-2N5 Digitron Semiconductors 2N5442 datasheet
07-05-2017 T6420B DIGITRON SEMICONDUCTORS 2N5441-2N5 Digitron Semiconductors T6420B datasheet
07-05-2017 2N5444 DIGITRON SEMICONDUCTORS 2N5441-2N5 Digitron Semiconductors 2N5444 datasheet
07-05-2017 2N5441 DIGITRON SEMICONDUCTORS 2N5441-2N5 Digitron Semiconductors 2N5441 datasheet
07-05-2017 2N6075B DIGITRON SEMICONDUCTORS 2N6068, A, Digitron Semiconductors 2N6075B datasheet
07-05-2017 2N6074B DIGITRON SEMICONDUCTORS 2N6068, A, Digitron Semiconductors 2N6074B datasheet
07-05-2017 MAC224A7 DIGITRON SEMICONDUCTORS MAC224(A) Digitron Semiconductors MAC224A7 datasheet
07-05-2017 MAC224-7 DIGITRON SEMICONDUCTORS MAC224(A) Digitron Semiconductors MAC224-7 datasheet
07-05-2017 MAC224A6 DIGITRON SEMICONDUCTORS MAC224(A) Digitron Semiconductors MAC224A6 datasheet
07-05-2017 MAC224-6 DIGITRON SEMICONDUCTORS MAC224(A) Digitron Semiconductors MAC224-6 datasheet
07-05-2017 MAC224A5 DIGITRON SEMICONDUCTORS MAC224(A) Digitron Semiconductors MAC224A5 datasheet
07-05-2017 MAC224-5 DIGITRON SEMICONDUCTORS MAC224(A) Digitron Semiconductors MAC224-5 datasheet
07-05-2017 MAC224A4 DIGITRON SEMICONDUCTORS MAC224(A) Digitron Semiconductors MAC224A4 datasheet
07-05-2017 LTM2892 LTM2892 SPI/Digital or I2C µModule Linear Technology LTM2892 datasheet
07-05-2017 LTC2328-16 LTC2328-16 16-Bit, 1Msps, ±10.24V Linear Technology LTC2328-16 datasheet
07-05-2017 LTC2328-18 LTC2328-18 18-Bit, 1Msps, ±10.24V Linear Technology LTC2328-18 datasheet
07-05-2017 LTC2327-18 LTC2327-18 Features 18-Bit, 500ks Linear Technology LTC2327-18 datasheet
07-05-2017 LTC2327-16 LTC2327-16 16-Bit, 500ksps, ±10.24 Linear Technology LTC2327-16 datasheet
07-05-2017 LTC2326-18 LTC2326-18 18-Bit, 250ksps, ±10.24 Linear Technology LTC2326-18 datasheet
07-05-2017 LTC2326-16 LTC2326-16 16-Bit, 250ksps, ±10.24 Linear Technology LTC2326-16 datasheet
07-05-2017 LTC2143-14 Features n Two-Channel Simultaneou Linear Technology LTC2143-14 datasheet
07-05-2017 LTC2144-14 Features n Two-Channel Simultaneou Linear Technology LTC2144-14 datasheet
07-05-2017 2N6073 DIGITRON SEMICONDUCTORS 2N6068, A, Digitron Semiconductors 2N6073 datasheet
07-05-2017 2N6072 DIGITRON SEMICONDUCTORS 2N6068, A, Digitron Semiconductors 2N6072 datasheet
07-05-2017 2N6071 DIGITRON SEMICONDUCTORS 2N6068, A, Digitron Semiconductors 2N6071 datasheet
07-05-2017 2N6070 DIGITRON SEMICONDUCTORS 2N6068, A, Digitron Semiconductors 2N6070 datasheet
07-05-2017 LV10150FCT LV10150FCT Rev.F Mar.-2016 描述 / BLUE ROCKET ELECTRONICS LV10150FCT datasheet
07-05-2017 2N6068 DIGITRON SEMICONDUCTORS 2N6068, A, Digitron Semiconductors 2N6068 datasheet
07-05-2017 LV10200FCT LV10200FCT Rev.E Mar.-2016 描述 / BLUE ROCKET ELECTRONICS LV10200FCT datasheet
07-05-2017 2N5291 10 AMP PNP(continued) Sorted by IC SSDI 2N5291 datasheet
07-05-2017 2N5314 10 AMP PNP(continued) Sorted by IC SSDI 2N5314 datasheet
07-05-2017 LV40150CT LV40150CT Rev.F Mar.-2016 描述 / BLUE ROCKET ELECTRONICS LV40150CT datasheet
07-05-2017 LV30150FCT LV30150FCT Rev.F Mar.-2016 描述 / BLUE ROCKET ELECTRONICS LV30150FCT datasheet
07-05-2017 LTC2145-14 Features n Two-Channel Simultaneou Linear Technology LTC2145-14 datasheet
07-05-2017 LV3045FCT LV3045FCT Rev.F Mar.-2016 描述 / BLUE ROCKET ELECTRONICS LV3045FCT datasheet
07-05-2017 LV30100FCT LV30100FCT Rev.E Mar.-2016 描述 / BLUE ROCKET ELECTRONICS LV30100FCT datasheet
07-05-2017 LV20150FCT LV20150FCT Rev.F Mar.-2016 描述 / BLUE ROCKET ELECTRONICS LV20150FCT datasheet
07-05-2017 LV20100FCT LV20100FCT Rev.E Mar.-2016 描述 / BLUE ROCKET ELECTRONICS LV20100FCT datasheet
07-05-2017 LV10100FCT LV10100FCT Rev.E Mar.-2016 描述 / BLUE ROCKET ELECTRONICS LV10100FCT datasheet
07-05-2017 2N6073B DIGITRON SEMICONDUCTORS 2N6068, A, Digitron Semiconductors 2N6073B datasheet
07-05-2017 2N6072B DIGITRON SEMICONDUCTORS 2N6068, A, Digitron Semiconductors 2N6072B datasheet
07-05-2017 2N6071A DIGITRON SEMICONDUCTORS 2N6068, A, Digitron Semiconductors 2N6071A datasheet
07-05-2017 2N6072A DIGITRON SEMICONDUCTORS 2N6068, A, Digitron Semiconductors 2N6072A datasheet
07-05-2017 2N6073A DIGITRON SEMICONDUCTORS 2N6068, A, Digitron Semiconductors 2N6073A datasheet
07-05-2017 2N6074A DIGITRON SEMICONDUCTORS 2N6068, A, Digitron Semiconductors 2N6074A datasheet
07-05-2017 2N6075A DIGITRON SEMICONDUCTORS 2N6068, A, Digitron Semiconductors 2N6075A datasheet
07-05-2017 2N6068B DIGITRON SEMICONDUCTORS 2N6068, A, Digitron Semiconductors 2N6068B datasheet
07-05-2017 2N6069B DIGITRON SEMICONDUCTORS 2N6068, A, Digitron Semiconductors 2N6069B datasheet
07-05-2017 2N6070B DIGITRON SEMICONDUCTORS 2N6068, A, Digitron Semiconductors 2N6070B datasheet
07-05-2017 2N6071B DIGITRON SEMICONDUCTORS 2N6068, A, Digitron Semiconductors 2N6071B datasheet
07-05-2017 2N6486 SavantIC Semiconductor Silicon NPN SavantIC 2N6486 datasheet
07-05-2017 2N5677 10 AMP PNP(continued) Sorted by IC SSDI 2N5677 datasheet
07-05-2017 2N5738 2N5738 Dimensions in mm (inches). Seme LAB 2N5738 datasheet
07-05-2017 2N5318 10 AMP PNP(continued) Sorted by IC SSDI 2N5318 datasheet
07-05-2017 2N6594 Inchange Semiconductor Silicon PNP Inchange Semiconductor 2N6594 datasheet
07-05-2017 2N7143 10 AMP PNP(continued) Sorted by IC SSDI 2N7143 datasheet
07-05-2017 2N6579 10 AMP PNP(continued) Sorted by IC SSDI 2N6579 datasheet
07-05-2017 2N6184 10 AMP PNP(continued) Sorted by IC SSDI 2N6184 datasheet
07-05-2017 2N6185 10 AMP PNP(continued) Sorted by IC SSDI 2N6185 datasheet
07-05-2017 2N5740 2N5740 Dimensions in mm (inches). Seme LAB 2N5740 datasheet
07-05-2017 2N6569 2N6569 Dimensions in mm (inches). Seme LAB 2N6569 datasheet
07-05-2017 2N7142 10 AMP PNP(continued) Sorted by IC SSDI 2N7142 datasheet
07-05-2017 2N6188 10 AMP PNP(continued) Sorted by IC SSDI 2N6188 datasheet
07-05-2017 2N6189 10 AMP PNP(continued) Sorted by IC SSDI 2N6189 datasheet
07-05-2017 MBR10H100CT MBR10H100CT Rev.E Mar.-2016 描述 BLUE ROCKET ELECTRONICS MBR10H100CT datasheet
07-05-2017 MBR10H100CT MBR10H100CT-MBR10H200CT 10.0AMP. Sc LGE MBR10H100CT datasheet
07-05-2017 MBR10H150CT MBR10H100CT-MBR10H200CT 10.0AMP. Sc LGE MBR10H150CT datasheet
07-05-2017 MBR10H200CT MBR10H100CT-MBR10H200CT 10.0AMP. Sc LGE MBR10H200CT datasheet
07-05-2017 BD10H200CS PBD10H200CS MBR10H200CT MBR10H200 Pan Jit International BD10H200CS datasheet
07-05-2017 MBR10H200CT PBD10H200CS MBR10H200CT MBR10H200 Pan Jit International MBR10H200CT datasheet
07-05-2017 MBR10H200FCT PBD10H200CS MBR10H200CT MBR10H200 Pan Jit International MBR10H200FCT datasheet
07-05-2017 MBR10H200DC PBD10H200CS MBR10H200CT MBR10H200 Pan Jit International MBR10H200DC datasheet
07-05-2017 MBR20H100CT MBR20H100CT Rev.F Mar.-2016 描述 BLUE ROCKET ELECTRONICS MBR20H100CT datasheet
07-05-2017 MBR1045CT MBR1045CT Rev.F Mar.-2016 描述 / BLUE ROCKET ELECTRONICS MBR1045CT datasheet
07-05-2017 MBR1060CT MBR1060CT Rev.F Mar.-2016 描述 / BLUE ROCKET ELECTRONICS MBR1060CT datasheet
07-05-2017 MBR2045CT MBR2045CT Rev.E Mar.-2016 描述 / BLUE ROCKET ELECTRONICS MBR2045CT datasheet
07-05-2017 MBR2060CT MBR2060CT Rev.F Mar.-2016 描述 / BLUE ROCKET ELECTRONICS MBR2060CT datasheet
07-05-2017 MBR3045CT MBR3045CT Rev.E Mar.-2016 描述 / BLUE ROCKET ELECTRONICS MBR3045CT datasheet
07-05-2017 MBR3030CT MBR3030CT thru MBR3045CT High Tjm L Sirectifier Semiconductors MBR3030CT datasheet
07-05-2017 MBR3035CT MBR3030CT thru MBR3045CT High Tjm L Sirectifier Semiconductors MBR3035CT datasheet
07-05-2017 MBR3040CT MBR3030CT thru MBR3045CT High Tjm L Sirectifier Semiconductors MBR3040CT datasheet
07-05-2017 MBR3045CT MBR3030CT thru MBR3045CT High Tjm L Sirectifier Semiconductors MBR3045CT datasheet
07-05-2017 MBR3030CT JIANGSU CHANGJIANG ELECTRONICS TECH JCET MBR3030CT datasheet
07-05-2017 MBR3035CT JIANGSU CHANGJIANG ELECTRONICS TECH JCET MBR3035CT datasheet
07-05-2017 MBR3040CT JIANGSU CHANGJIANG ELECTRONICS TECH JCET MBR3040CT datasheet
07-05-2017 MBR3045CT JIANGSU CHANGJIANG ELECTRONICS TECH JCET MBR3045CT datasheet
07-05-2017 MBR3050CT JIANGSU CHANGJIANG ELECTRONICS TECH JCET MBR3050CT datasheet
07-05-2017 MBR3060CT JIANGSU CHANGJIANG ELECTRONICS TECH JCET MBR3060CT datasheet
07-05-2017 MBR3045CT SEMICONDUCTOR MBR3045CT Series RRo nELL MBR3045CT datasheet
07-05-2017 MBRH3045CT SEMICONDUCTOR MBR3045CT Series RRo nELL MBRH3045CT datasheet
07-05-2017 MBR3045CT SEMICONDUCTOR TECHNICAL DATA SWITCH KEC MBR3045CT datasheet
07-05-2017 MBR3030CT BL GALAXY ELECTRICAL SCHOTTKY BARRI BL GALAXY ELECTRICAL MBR3030CT datasheet
07-05-2017 MBR3035CT BL GALAXY ELECTRICAL SCHOTTKY BARRI BL GALAXY ELECTRICAL MBR3035CT datasheet
07-05-2017 MBR3040CT BL GALAXY ELECTRICAL SCHOTTKY BARRI BL GALAXY ELECTRICAL MBR3040CT datasheet
07-05-2017 MBR3045CT BL GALAXY ELECTRICAL SCHOTTKY BARRI BL GALAXY ELECTRICAL MBR3045CT datasheet
07-05-2017 MBR3050CT BL GALAXY ELECTRICAL SCHOTTKY BARRI BL GALAXY ELECTRICAL MBR3050CT datasheet
07-05-2017 MBR3060CT BL GALAXY ELECTRICAL SCHOTTKY BARRI BL GALAXY ELECTRICAL MBR3060CT datasheet
07-05-2017 MBR3080CT BL GALAXY ELECTRICAL SCHOTTKY BARRI BL GALAXY ELECTRICAL MBR3080CT datasheet
07-05-2017 MBR30100CT BL GALAXY ELECTRICAL SCHOTTKY BARRI BL GALAXY ELECTRICAL MBR30100CT datasheet
07-05-2017 MBR3060CT MBR3060CT Rev.F Mar.-2016 描述 / BLUE ROCKET ELECTRONICS MBR3060CT datasheet
07-05-2017 MBR10100CT MBR10100CT Rev.F Mar.-2016 描述 / BLUE ROCKET ELECTRONICS MBR10100CT datasheet
07-05-2017 MBR10150CT MBR10150CT Rev.F Mar.-2016 描述 / BLUE ROCKET ELECTRONICS MBR10150CT datasheet
07-05-2017 MBR10150CT MBR10150CT thru MBR10200CT High Tjm Sirectifier Semiconductors MBR10150CT datasheet
07-05-2017 MBR10200CT MBR10150CT thru MBR10200CT High Tjm Sirectifier Semiconductors MBR10200CT datasheet
07-05-2017 MBR10150CT JIANGSU CHANGJIANG ELECTRONICS TECH JCET MBR10150CT datasheet
07-05-2017 MBR10150CT MBR101500CT THRU MBR10200CT SCHOTT MDD MBR10150CT datasheet
07-05-2017 MBR10200CT MBR101500CT THRU MBR10200CT SCHOTT MDD MBR10200CT datasheet
07-05-2017 MBR10150CT MBR10150CT, MBRF10150CT Dual Common GOOD-ARK MBR10150CT datasheet
07-05-2017 MBRF10150CT MBR10150CT, MBRF10150CT Dual Common GOOD-ARK MBRF10150CT datasheet
07-05-2017 MBR10150CT SEMICONDUCTOR TECHNICAL DATA SWITCH KEC MBR10150CT datasheet
07-05-2017 MBRF10150CT MBRF101500CT THRU MBRF10200CT SCHO MDD MBRF10150CT datasheet
07-05-2017 MBRF10200CT MBRF101500CT THRU MBRF10200CT SCHO MDD MBRF10200CT datasheet
07-05-2017 MBRF10150CT SANGDEST MICROELECTRONICS MBRF1015 SANGDEST MICROELECTRONICS MBRF10150CT datasheet
07-05-2017 MBRF10150CTR SANGDEST MICROELECTRONICS MBRF1015 SANGDEST MICROELECTRONICS MBRF10150CTR datasheet
07-05-2017 MBRF1035CT MBRF1035CT - MBRF10150CT Isolated 1 LGE MBRF1035CT datasheet
07-05-2017 MBRF1045CT MBRF1035CT - MBRF10150CT Isolated 1 LGE MBRF1045CT datasheet
07-05-2017 MBRF1050CT MBRF1035CT - MBRF10150CT Isolated 1 LGE MBRF1050CT datasheet
07-05-2017 MBRF1060CT MBRF1035CT - MBRF10150CT Isolated 1 LGE MBRF1060CT datasheet
07-05-2017 MBRF1090CT MBRF1035CT - MBRF10150CT Isolated 1 LGE MBRF1090CT datasheet
07-05-2017 MBRF10100CT MBRF1035CT - MBRF10150CT Isolated 1 LGE MBRF10100CT datasheet
07-05-2017 MBRF10150CT MBRF1035CT - MBRF10150CT Isolated 1 LGE MBRF10150CT datasheet
07-05-2017 MBRF10150CT SEMICONDUCTOR TECHNICAL DATA MBRF1 KEC MBRF10150CT datasheet
07-05-2017 MBR10200CT MBR10200CT Rev.F Mar.-2016 描述 / BLUE ROCKET ELECTRONICS MBR10200CT datasheet
07-05-2017 MBR20100CT MBR20100CT Rev.F Mar.-2016 描述 / BLUE ROCKET ELECTRONICS MBR20100CT datasheet
07-05-2017 MBR20150CT MBR20150CT Rev.F Mar.-2016 描述 / BLUE ROCKET ELECTRONICS MBR20150CT datasheet
07-05-2017 MBR20200CT MBR20200CT Rev.F Mar.-2016 描述 / BLUE ROCKET ELECTRONICS MBR20200CT datasheet
07-05-2017 MBR30100CT MBR30100CT Rev.F Mar.-2016 描述 / BLUE ROCKET ELECTRONICS MBR30100CT datasheet
07-05-2017 MBR10100 MBR10100 Rev.F Mar.-2016 描述 / D BLUE ROCKET ELECTRONICS MBR10100 datasheet
07-05-2017 MBR10200 MBR10200 Rev.F Mar.-2016 描述 / D BLUE ROCKET ELECTRONICS MBR10200 datasheet
07-05-2017 MBR10150 JIANGSU CHANGJIANG ELECTRONICS TECH JCET MBR10150 datasheet
07-05-2017 MBR10200 JIANGSU CHANGJIANG ELECTRONICS TECH JCET MBR10200 datasheet
07-05-2017 MBR10200 MBR1040~MBR10200 10 AMPERES SCHOTTK Pan Jit International MBR10200 datasheet
07-05-2017 MBR10150 MBR1040~MBR10200 10 AMPERES SCHOTTK Pan Jit International MBR10150 datasheet
07-05-2017 LV20Q100F LV20Q100F Rev.F Mar.-2016 描述 / BLUE ROCKET ELECTRONICS LV20Q100F datasheet
07-05-2017 LV30Q100FCT LV30Q100FCT Rev.F Mar.-2016 描述 BLUE ROCKET ELECTRONICS LV30Q100FCT datasheet
07-05-2017 2N6487 SavantIC Semiconductor Silicon NPN SavantIC 2N6487 datasheet
07-05-2017 2N6488 SavantIC Semiconductor Silicon NPN SavantIC 2N6488 datasheet
07-05-2017 2N5412 15 AMP NPN Sorted by IC, then VCEO SSDI 2N5412 datasheet
07-05-2017 2N5881 SavantIC Semiconductor Silicon NPN SavantIC 2N5881 datasheet
07-05-2017 2N5882 SavantIC Semiconductor Silicon NPN SavantIC 2N5882 datasheet
07-05-2017 2N5881 2N5881 Dimensions in mm (inches). Seme LAB 2N5881 datasheet
07-05-2017 SFT4100 Solid State Devices, Inc. 14701 Fir SSDI SFT4100 datasheet
07-05-2017 2N6676 2N6676 Dimensions in mm (inches). Seme LAB 2N6676 datasheet
07-05-2017 2N6676 2N6676 2N6677 2N6678 NPN SILICON PO Central Semiconductor 2N6676 datasheet
07-05-2017 2N6677 2N6676 2N6677 2N6678 NPN SILICON PO Central Semiconductor 2N6677 datasheet
07-05-2017 2N6678 2N6676 2N6677 2N6678 NPN SILICON PO Central Semiconductor 2N6678 datasheet
07-05-2017 2N6676 2N6676 & 2N6678 NPN High Power Sili MA-COM 2N6676 datasheet
07-05-2017 2N6678 2N6676 & 2N6678 NPN High Power Sili MA-COM 2N6678 datasheet
07-05-2017 2N6676 SavantIC Semiconductor Silicon NPN SavantIC 2N6676 datasheet
07-05-2017 2N6677 SavantIC Semiconductor Silicon NPN SavantIC 2N6677 datasheet
07-05-2017 2N6678 SavantIC Semiconductor Silicon NPN SavantIC 2N6678 datasheet
07-05-2017 2N6677 2N6677 Dimensions in mm (inches). Seme LAB 2N6677 datasheet
07-05-2017 2N6836 Motorola 2N6836 datasheet
07-05-2017 MBRF2040CT LITE-ON SEMICONDUCTOR MBRF2030CT t LITE-ON MBRF2040CT datasheet
07-05-2017 MBRF2045CT LITE-ON SEMICONDUCTOR MBRF2030CT t LITE-ON MBRF2045CT datasheet
07-05-2017 MBRF2045CT MBRF2045CT Technical Data Data She Sangdest Microelectronics MBRF2045CT datasheet
07-05-2017 MBR2045CT SEMICONDUCTOR TECHNICAL DATA MBR20 First Silicon MBR2045CT datasheet
07-05-2017 MBRF2045CT SEMICONDUCTOR TECHNICAL DATA MBR20 First Silicon MBRF2045CT datasheet
07-05-2017 MBRB2045CT SEMICONDUCTOR TECHNICAL DATA MBR20 First Silicon MBRB2045CT datasheet
07-05-2017 MBRF2030CT Production specification Schottky GME MBRF2030CT datasheet
07-05-2017 MBRF2035CT Production specification Schottky GME MBRF2035CT datasheet
07-05-2017 MBRF2040CT Production specification Schottky GME MBRF2040CT datasheet
07-05-2017 MBRF2045CT Production specification Schottky GME MBRF2045CT datasheet
07-05-2017 MBRF2050CT Production specification Schottky GME MBRF2050CT datasheet
07-05-2017 MBRF2060CT Production specification Schottky GME MBRF2060CT datasheet
07-05-2017 MBRF2080CT Production specification Schottky GME MBRF2080CT datasheet
07-05-2017 MBRF20100CT Production specification Schottky GME MBRF20100CT datasheet
07-05-2017 MBRF2045CT SEMICONDUCTOR TECHNICAL DATA MBRF2 KEC MBRF2045CT datasheet
07-05-2017 MBRF2030CT MBRF2030CT-MBR2060CT Schottky Barri LGE MBRF2030CT datasheet
07-05-2017 MBRF2035CT MBRF2030CT-MBR2060CT Schottky Barri LGE MBRF2035CT datasheet
07-05-2017 MBRF2040CT MBRF2030CT-MBR2060CT Schottky Barri LGE MBRF2040CT datasheet
07-05-2017 MBRF2045CT MBRF2030CT-MBR2060CT Schottky Barri LGE MBRF2045CT datasheet
07-05-2017 MBRF2050CT MBRF2030CT-MBR2060CT Schottky Barri LGE MBRF2050CT datasheet
07-05-2017 MBRF2060CT MBRF2030CT-MBR2060CT Schottky Barri LGE MBRF2060CT datasheet
07-05-2017 MBRF2020CT MBRF2020CT THRU MBRF20100CT SCHOTT MDD MBRF2020CT datasheet
07-05-2017 MBRF2030CT MBRF2020CT THRU MBRF20100CT SCHOTT MDD MBRF2030CT datasheet
07-05-2017 MBRF2040CT MBRF2020CT THRU MBRF20100CT SCHOTT MDD MBRF2040CT datasheet
07-05-2017 MBRF2045CT MBRF2020CT THRU MBRF20100CT SCHOTT MDD MBRF2045CT datasheet
07-05-2017 MBRF2050CT MBRF2020CT THRU MBRF20100CT SCHOTT MDD MBRF2050CT datasheet
07-05-2017 MBRF2060CT MBRF2020CT THRU MBRF20100CT SCHOTT MDD MBRF2060CT datasheet
07-05-2017 MBRF2070CT MBRF2020CT THRU MBRF20100CT SCHOTT MDD MBRF2070CT datasheet
07-05-2017 MBRF2080CT MBRF2020CT THRU MBRF20100CT SCHOTT MDD MBRF2080CT datasheet
07-05-2017 MBRF2090CT MBRF2020CT THRU MBRF20100CT SCHOTT MDD MBRF2090CT datasheet
07-05-2017 MBRF20100CT MBRF2020CT THRU MBRF20100CT SCHOTT MDD MBRF20100CT datasheet
07-05-2017 MBRF2060CT MBRF2060CT Rev.F Mar.-2016 描述 / BLUE ROCKET ELECTRONICS MBRF2060CT datasheet
07-05-2017 MBRF3060CT MBRF3060CT Rev.F Mar.-2016 描述 / BLUE ROCKET ELECTRONICS MBRF3060CT datasheet
07-05-2017 MBRF10100CT MBRF10100CT Rev.F Mar.-2016 描述 BLUE ROCKET ELECTRONICS MBRF10100CT datasheet
07-05-2017 MBRF10100CT GOODARK Type MBRF10100CT SUZHOU GO GOOD-ARK MBRF10100CT datasheet
07-05-2017 MBRF10100CT SANGDEST MICROELECTRONICS MBRF1010 SANGDEST MICROELECTRONICS MBRF10100CT datasheet
07-05-2017 MBRF10100CT SEMICONDUCTOR TECHNICAL DATA MBRF1 KEC MBRF10100CT datasheet
07-05-2017 MBRF10150CT MBRF10150CT Rev.F Mar.-2016 DATA S BLUE ROCKET ELECTRONICS MBRF10150CT datasheet
07-05-2017 MBRF10200CT MBRF10200CT Rev.F Mar.-2016 描述 BLUE ROCKET ELECTRONICS MBRF10200CT datasheet
07-05-2017 MBRF10200CT SANGDEST MICROELECTRONICS MBRF1020 SANGDEST MICROELECTRONICS MBRF10200CT datasheet
07-05-2017 MBRF10200CT SEMICONDUCTOR TECHNICAL DATA MBRF1 KEC MBRF10200CT datasheet
07-05-2017 MBRF10200CT Schottky Barrier Rectifier MBRF1020 Littelfuse MBRF10200CT datasheet
07-05-2017 MBR10200CT S E M I C O N D U C TO R MBR10200CT First Silicon MBR10200CT datasheet
07-05-2017 MBRF10200CT S E M I C O N D U C TO R MBR10200CT First Silicon MBRF10200CT datasheet
07-05-2017 MBRB10200CT S E M I C O N D U C TO R MBR10200CT First Silicon MBRB10200CT datasheet
07-05-2017 MBRF10150CT LITE-ON SEMICONDUCTOR MBRF10150CT LITE-ON MBRF10150CT datasheet
07-05-2017 MBRF10200CT LITE-ON SEMICONDUCTOR MBRF10150CT LITE-ON MBRF10200CT datasheet
07-05-2017 MBRB10200CT MCC TM Micro Commercial Components MCC MBRB10200CT datasheet
07-05-2017 MBRB10150CT Production specification Schottky GME MBRB10150CT datasheet
07-05-2017 MBRB10200CT Production specification Schottky GME MBRB10200CT datasheet

10-2018    9-2018    8-2018    7-2018    6-2018    5-2018    4-2018    3-2018    2-2018    1-2018
12-2017    11-2017    10-2017    9-2017    8-2017    7-2017    6-2017    5-2017    4-2017    3-2017    2-2017    1-2017
12-2016    11-2016    10-2016    9-2016    8-2016    7-2016    6-2016    5-2016    4-2016    3-2016    2-2016    1-2016
12-2015    11-2015    10-2015    9-2015    8-2015    7-2015    6-2015    5-2015    4-2015    3-2015    2-2015    1-2015
12-2014    11-2014    10-2014    9-2014    8-2014    7-2014    6-2014    5-2014    4-2014    3-2014    2-2014    1-2014
12-2013    11-2013    10-2013    9-2013    8-2013    7-2013    6-2013    5-2013    4-2013    3-2013    2-2013    1-2013
12-2012    11-2012    10-2012    9-2012    8-2012    7-2012    6-2012    5-2012    4-2012    3-2012    2-2012    1-2012
12-2011    11-2011    10-2011    9-2011    8-2011    7-2011    6-2011    5-2011    4-2011    3-2011    2-2011    1-2011
12-2010    11-2010    10-2010    9-2010    8-2010    7-2010    6-2010    5-2010    4-2010    3-2010    2-2010    1-2010


31  30  29  28  27  26  25  24  23  22  21  20  19  18  17  16  15  14  13  12  11  10  09  08  07  06  05  04  03  02  01


The site has been moved : DatasheetsPDF.com
Since 2005 - HOME - Link US - All - Privacy Policy & Contact Us -